Other Surface Observations
Issued by NWS

Current Version | Previous Version | Text Only | Print | Product List | Glossary On
Versions: 1 2 3 4 5 6 7 8 9 10 11 12 13 14 15 16 17 18 19 20 21 22 23 24 25 26 27 28 29 30 31 32 33 34 35 36 37 38 39 40 41 42 43 44 45 46 47 48 49 50
000
SXUS52 KTAE 291418
OSOTAE
OSOTAE
North Florida/South Alabama/Southwest Georgia Weather Roundup
National Weather Service Tallahassee Florida
1000 AM EDT TUE JUL 29 2014

Note: "fair" indicates few or no clouds below 12,000 feet with no
significant weather and/or obstructions to visibility.

!FLZ017-115-028-034-025-291500
...North Florida...

CITY           SKY/WX    TMP DP  RH WIND       PRES   REMARKS
TALLAHASSEE    MOSUNNY   80  72  76 N6        29.99R
APALACHICOLA   MOSUNNY   81  72  74 N12       29.98R
PERRY          PTSUNNY   79  70  73 N6        29.98R
CROSS CITY       N/A     82  74  76 CALM      29.96R
HOMERVILLE     FAIR      82  68  61 NE3       29.96S
JACKSONVILLE   MOSUNNY   83  69  62 NW8       29.93R
$$

!FLZ112-006-005-002-011-291500
...Florida Panhandle...

CITY           SKY/WX    TMP DP  RH WIND       PRES   REMARKS
MARIANNA       SUNNY     79  69  71 N8        30.00R
BONIFAY        FAIR      80  68  66 VRB6      30.02R
PANAMA CITY NW PTSUNNY   80  69  69 N7        29.99S
TYNDALL AFB    PTSUNNY   80  70  70 NE6       30.00R
TYND DRONE APT PTSUNNY   80  71  74 NE9       29.98
DE FUNIAK SPR  FAIR      78  65  65 N6        30.03R
EGLIN AFB      MOSUNNY   80  68  66 N7        30.02R
DESTIN         PTSUNNY   81  69  67 N6        30.02R
HURLBURT       MOSUNNY   81  62  52 N7        30.01R
CRESTVIEW      SUNNY     80  69  69 VRB6      30.04R
PENSACOLA      SUNNY     77  67  71 N9        30.03R
$$

!ALZ063-066-291500
...South Alabama...

CITY           SKY/WX    TMP DP  RH WIND       PRES   REMARKS
DOTHAN         SUNNY     76  66  71 N6        30.06R
OZARK CAIRNS   SUNNY     78  65  65 N7        30.02R
FT RUCKER HELI SUNNY     79  64  60 N8        30.01R
RUCKER HELI 3  FAIR      78  66  65 VRB6      30.05R
RUCKER HELI 2  FAIR      79  64  60 N9        30.02R
FLORALA APT    SUNNY     79  66  64 NE5       30.05R
ANDALUSIA      SUNNY     82  65  56 N7        30.04R
TROY           SUNNY     79  63  57 NE8       30.04R
EUFALA         FAIR      79  65  62 VRB3      30.01R
MOBILE         MOSUNNY   79  67  66 NE8       30.06S
$$

!GAZ120>161-291500
...Southwest and South Central Georgia...

CITY           SKY/WX    TMP DP  RH WIND       PRES   REMARKS
THOMASVILLE    PTSUNNY   81  68  65 NE3       29.99R
BAINBRIDGE     SUNNY     81  68  65 N5        30.00R
MOODY AFB      SUNNY     82  74  75 N5        29.96R
VALDOSTA       PTSUNNY   86  65  49 N6        29.97R
MOULTRIE       SUNNY     81  64  57 CALM      29.99R
BLAKELY        SUNNY     81  66  61 N7        30.01R
ALBANY         SUNNY     80  64  58 VRB5      30.00R
TIFTON         FAIR      78  62  57 N3        29.98R
FITZGERALD     FAIR      81  61  51 N8        29.99S
CORDELE        FAIR      79  64  60 N7        29.99S
AMERICUS       FAIR      75  63  64 N8        30.01S
$$

!GMZ750-755-770-775-291500
...Coastal and Buoy Obs...

STATION/POSITION TIME  TEMP    WIND        PRES    VSBY  WAVE
                       AIR SEA DIR/SP/G                  HT/PER
                 (UTC) (F)     (DEG/KT/KT) (MB)    (MI)  (FT/S)
KEATON BEACH     1400   82      30/  6/  7 1014.7R
CEDAR KEY        1400   80     290/ 11/ 14 1015.2R
C TOWER          1400   79      30/  8/  8 1015.1F
APALACHICOLA BUO 1300   84 85  290/ 16/ 19 1014.9R         5/ 6
PANAMA CITY BUOY 1320   81 84  260/  6/  8 1015.0S         3/ 6
MOBILE BUOY      1326   83 85   20/ 14/ 17 1016.8R
ORANGE BCH AL BU 1400   78 84   20/ 14/ 16 1016.6R         2/ 3
$$



USA.gov is the U.S. government's official web portal to all federal, state and local government web resources and services.